Find Starlink 1627

NORAD ID: 46168 Int'l Des: 2020-057 Owner: SPXS Country: US Constellation: starlink decayed
LEOCIRCULAR

Re-entered — 24. Mai 2026

3D-Globus wird geladen...

About Starlink 1627

Starlink 1627 (NORAD 46168) is a starlink constellation satellite (v1.0) launched Aug 18, 2020 by SPXS of US. It re-entered the atmosphere on May 24, 2026. with a mass of 260.00 kg.

Höhenverlauf

Loading altitude history...

Zweizeiliger Elementsatz

1 46168U 20057BD 26144.61429156 .12729423 12590-4 24284-3 0 9994
2 46168 53.0143 198.5600 0006133 288.0143 72.0238 16.46995398319422
Epoch: 24. Mai 2026 • Age: 2665 hours

Aktueller Status

Position data unavailable
Startdatum 18. Aug. 2020
Alter 6 years
Verglühungsdatum 24. Mai 2026
Typ internet

Technische Details

Klassifizierung Payload
Masse 260.00 kg
Trockenmasse 248.00 kg
Gesamtmasse 260.00 kg
Länge 0.20 m
Durchmesser 2.80 m
Spannweite 9.00 m
Form Box + pan
Hersteller SPXS
Bus-Typ Starlink
Phasenstatus Unknown Transfer Status
Besitzer/Staat SPXS/US

Most Searched